Theta_e
319 319 320 320 320 320 320 321 321 321 321 321 321 323 324 324 323 319 306 316 322 334 338 310 316 316 311 308 320 320 308 306 308 310 312 317 322 330 334 331 336 338 336 339 346
318 318 319 319 319 320 320 320 320 321 320 321 321 322 324 324 319 318 330 342 337 334 307 313 312 314 307 306 315 309 304 307 312 314 313 321 323 326 327 328 331 337 340 343 347
317 317 318 318 319 319 320 320 321 321 320 320 321 322 325 322 319 318 345 338 336 325 309 312 315 311 306 306 315 311 306 313 316 318 318 318 322 323 326 324 329 333 337 342 344
317 317 317 317 318 318 319 319 320 320 320 320 321 322 325 319 307 321 343 336 336 314 317 315 312 306 303 304 308 307 314 316 315 316 318 316 320 321 328 323 334 341 342 343 342
316 316 316 316 317 317 317 318 319 319 319 319 320 322 315 305 312 331 340 333 314 316 314 313 308 308 304 305 307 310 311 313 314 315 314 319 319 319 326 333 339 344 343 342 341
315 315 315 315 316 316 317 318 318 318 318 319 321 324 308 297 317 323 312 311 312 314 313 312 309 310 306 306 305 308 308 308 309 313 314 314 316 320 326 335 337 342 341 342 342
314 314 314 315 315 315 316 317 317 317 318 320 321 323 309 302 317 315 310 309 312 313 311 310 310 308 308 306 308 305 304 306 307 309 310 317 312 315 329 335 334 336 338 342 342
313 314 314 314 314 315 315 315 316 318 320 321 322 318 308 313 316 313 311 313 314 313 312 314 310 307 306 309 304 301 299 297 305 308 310 309 301 314 331 331 331 333 335 337 339
313 313 313 313 314 314 314 314 317 319 321 325 315 314 305 319 313 314 316 314 313 312 310 315 308 303 304 300 296 297 293 295 300 307 307 308 304 310 331 331 329 332 333 335 335
312 312 313 313 314 313 313 315 315 318 319 322 320 298 304 309 313 313 315 317 313 309 307 307 302 299 298 296 292 294 294 295 297 303 307 304 302 317 327 329 329 330 332 334 335
312 312 313 313 313 312 309 303 302 301 301 301 299 299 306 313 315 309 315 314 310 305 297 300 297 293 295 298 299 298 296 296 298 303 304 303 303 306 321 326 326 328 330 332 334
311 311 312 312 312 312 303 301 300 299 297 303 304 307 311 312 307 310 314 309 305 299 300 297 293 299 303 302 301 299 296 295 299 303 302 300 302 305 319 323 326 327 329 331 333
311 311 312 311 310 303 298 301 303 298 295 300 303 303 304 309 306 307 311 307 303 299 298 295 298 305 303 301 300 295 293 295 298 300 300 300 298 300 306 313 321 328 331 333 334
310 311 311 309 301 300 300 302 302 300 289 295 298 303 305 308 304 314 312 310 306 302 301 298 303 304 302 300 301 293 300 302 301 298 294 298 291 296 302 317 324 327 330 331 335
310 310 310 309 297 299 301 302 300 298 282 298 298 305 301 304 304 306 312 308 304 302 300 299 301 301 301 302 302 300 302 302 300 294 292 294 291 295 307 314 319 326 330 336 329
310 309 309 303 297 301 303 300 300 289 283 296 300 297 298 299 302 305 306 308 308 303 302 301 306 305 304 306 304 304 300 297 294 291 289 293 292 294 302 305 310 330 337 334 331
309 308 305 304 294 300 299 298 289 284 294 294 293 295 293 295 299 301 301 299 297 292 292 300 302 306 307 301 302 299 293 287 287 287 288 293 294 297 304 312 319 331 331 335 332
307 307 305 305 301 300 298 294 281 290 291 297 297 294 294 297 296 299 299 296 299 298 294 293 293 303 306 302 298 295 293 288 284 285 289 294 291 301 315 319 332 335 333 325 325
306 299 299 302 305 299 296 286 287 290 298 297 296 292 291 295 296 295 296 296 299 300 295 293 296 306 307 304 304 298 293 294 289 287 288 291 299 306 321 324 323 319 319 320 323
296 300 300 304 303 296 291 288 289 296 298 296 291 293 291 294 292 293 294 298 299 303 301 297 294 300 305 304 303 300 300 293 289 286 285 289 291 297 309 317 319 318 316 320 324
298 296 301 301 296 293 287 286 291 298 297 294 292 292 293 294 293 290 293 299 302 301 301 297 296 298 300 298 297 297 294 291 290 289 286 286 291 299 308 315 315 319 320 322 324
294 293 303 297 290 285 287 290 296 294 295 293 295 294 293 295 294 292 294 297 303 302 299 299 295 293 297 302 304 299 296 294 291 289 288 288 291 303 309 315 317 317 321 325 326
292 294 304 298 287 285 288 292 294 293 293 292 293 296 296 293 291 298 299 302 303 303 300 299 293 290 294 297 300 300 298 294 291 290 289 289 293 306 310 311 313 314 317 324 324
296 294 295 293 289 288 288 290 291 299 296 296 294 295 293 292 295 295 299 303 306 305 320 306 292 293 291 295 298 298 300 297 294 292 290 291 296 300 309 309 312 317 318 322 322
295 292 293 291 291 292 289 291 291 291 296 296 292 294 293 290 294 297 302 304 306 311 301 299 294 293 295 299 300 300 301 300 297 296 295 297 296 301 303 310 313 315 318 319 319
292 291 293 291 293 292 292 292 292 293 292 294 293 296 297 296 297 297 298 299 300 305 297 297 294 296 296 303 303 301 303 302 303 301 300 302 300 304 310 313 316 316 318 320 323
294 295 292 293 293 291 291 294 294 295 298 301 305 300 299 302 304 302 301 299 301 301 304 299 295 293 291 302 299 294 301 304 308 310 306 299 302 310 309 313 314 316 318 318 321
Wind_Speed
16 15 16 17 17 17 17 17 17 17 16 17 16 16 15 15 16 2 5 5 1 7 7 7 3 6 4 3 3 3 5 1 4 4 3 4 5 4 3 5 1 1 5 6 17
15 16 17 17 18 17 17 17 17 17 17 16 16 14 14 12 3 3 8 2 1 6 5 6 5 7 4 3 2 5 4 7 4 3 3 8 7 10 4 3 2 4 10 17 17
17 17 17 18 18 18 17 17 17 17 16 16 15 14 13 8 2 3 4 5 2 1 1 2 2 1 3 2 1 2 4 1 3 4 5 7 7 6 9 5 7 11 16 16 16
17 18 18 19 19 19 19 19 18 18 17 17 16 15 14 2 1 2 8 5 2 3 3 3 3 3 3 3 3 3 5 4 4 2 4 5 5 4 9 6 10 18 18 15 16
19 19 18 18 20 20 20 20 19 18 17 17 15 14 3 4 6 5 9 3 2 3 3 4 4 1 2 2 5 1 3 3 3 6 5 6 9 5 8 1 14 15 16 16 14
19 19 20 20 20 21 21 19 19 19 18 16 13 11 3 2 2 5 6 2 1 1 4 1 2 2 3 2 1 4 6 8 4 2 4 7 4 6 2 10 14 17 16 14 13
20 21 21 21 21 21 21 21 20 19 18 13 8 2 2 11 4 3 5 1 1 2 3 3 4 3 2 4 3 2 6 6 2 4 3 8 3 9 7 12 15 15 12 13 12
20 21 21 22 22 23 23 22 23 19 13 6 3 1 7 4 3 2 4 2 3 3 2 5 3 2 2 3 7 6 6 5 6 1 4 4 8 6 12 16 16 16 13 13 11
21 21 22 23 23 23 24 24 20 6 2 6 2 2 9 6 2 4 4 2 3 1 4 1 4 3 6 4 6 7 2 3 11 2 1 4 7 4 11 13 12 14 13 12 9
22 22 22 23 23 23 26 21 4 2 1 3 1 3 5 1 4 2 2 2 2 5 5 7 6 4 4 5 3 1 4 4 6 6 2 2 4 1 8 10 9 9 10 10 11
22 22 22 23 23 23 14 4 7 4 4 4 2 3 5 8 3 3 3 5 2 7 2 4 6 2 3 2 4 2 2 5 6 5 2 3 2 3 8 5 9 10 10 9 10
22 22 23 24 23 21 2 7 6 3 9 6 6 7 6 1 4 3 4 5 3 2 2 7 2 5 2 3 1 2 3 5 7 3 3 4 1 2 6 11 12 11 11 8 6
22 22 22 24 25 4 2 4 2 5 1 9 6 5 5 9 7 6 7 3 3 4 3 5 4 4 3 3 2 3 4 3 5 5 3 3 7 6 2 6 6 6 8 7 11
21 21 20 28 3 5 3 4 4 4 6 9 4 8 5 7 4 8 8 6 1 7 7 4 5 2 2 4 6 1 5 1 2 4 1 5 4 7 5 9 7 4 7 5 15
22 21 17 10 3 2 4 7 5 4 3 4 3 1 1 10 4 3 4 4 7 5 6 6 2 1 3 4 5 7 3 2 3 3 3 6 5 9 5 7 6 6 9 15 15
22 20 16 1 0 7 8 8 4 8 7 6 0 2 4 2 2 3 3 3 4 3 1 6 3 3 6 1 4 6 5 8 5 3 5 4 5 7 3 5 7 6 11 15 14
24 18 7 2 4 6 6 5 6 4 5 5 2 1 2 2 3 3 6 4 6 5 2 3 3 4 3 2 3 6 7 4 5 7 6 3 1 9 6 4 6 9 9 11 12
26 18 5 5 3 6 3 7 3 5 6 5 4 2 6 6 3 5 5 5 2 4 3 4 5 4 3 5 7 2 8 8 3 3 5 4 2 6 4 5 3 6 8 9 11
21 2 1 4 6 3 6 4 9 6 3 6 7 1 3 2 4 3 7 6 8 8 6 5 5 3 3 3 6 3 2 4 9 3 3 3 6 5 3 4 5 5 5 6 5
3 3 3 2 6 4 6 6 5 4 5 2 2 1 1 2 4 7 7 5 6 10 6 5 0 2 2 4 5 4 6 4 4 3 2 5 5 6 5 8 5 5 4 3 2
2 4 4 2 1 6 5 7 5 6 4 1 2 3 4 2 5 4 8 5 6 4 6 5 3 5 1 1 6 2 3 8 6 4 6 1 8 7 4 3 4 6 6 6 6
2 3 3 2 5 1 3 4 4 4 2 3 1 4 4 3 3 5 9 7 5 8 11 7 5 4 9 2 1 1 5 6 7 4 2 4 8 2 5 7 8 10 7 3 5
3 1 3 4 3 2 5 4 4 2 3 2 3 5 1 3 3 3 4 2 3 9 11 8 0 3 9 7 3 5 3 5 6 5 4 5 7 4 3 4 8 5 4 4 4
2 3 5 5 1 3 2 4 4 3 5 4 5 2 2 2 1 3 3 2 4 2 3 11 4 8 8 8 5 3 4 5 6 5 6 6 5 6 8 8 6 2 3 2 3
4 1 3 2 2 2 1 3 3 5 3 3 3 7 3 2 3 3 2 5 4 6 4 5 8 5 2 5 3 6 5 6 4 6 6 4 7 9 7 8 3 5 2 2 5
3 3 4 1 3 1 2 2 3 4 5 4 4 6 6 6 6 2 1 2 1 5 4 2 3 4 3 2 5 5 2 6 4 4 2 3 7 6 5 4 1 6 5 2 2
3 2 3 2 4 1 2 3 4 3 7 7 4 2 4 4 3 1 2 1 3 2 2 3 5 4 4 2 3 3 1 2 3 0 1 5 5 5 5 3 3 6 2 6 6
Wind_Direction
359 358 354 351 348 347 342 341 341 333 334 328 334 330 331 328 314 179 262 227 128 328 322 290 20 344 64 72 83 108 63 150 197 173 167 165 119 162 40 122 136 335 146 159 135
353 359 352 348 345 345 338 336 334 327 328 328 328 326 325 331 304 288 239 175 347 334 345 20 8 351 31 62 35 84 108 220 177 180 172 159 147 156 128 160 57 60 83 124 139
353 355 351 345 345 339 334 333 329 323 323 324 325 323 323 331 330 264 66 114 230 301 265 320 312 42 59 6 49 147 180 235 175 218 132 157 161 152 136 238 195 168 150 148 151
349 352 349 343 340 337 335 331 324 318 320 323 324 324 320 249 112 29 111 147 217 1 308 352 349 62 60 21 3 5 230 194 297 120 166 192 137 154 168 240 163 162 154 154 166
349 347 344 341 339 334 330 325 317 316 317 319 325 327 350 7 258 95 113 137 62 349 6 14 32 80 53 333 353 163 285 226 199 240 233 150 181 170 216 76 124 142 154 170 176
347 343 340 341 337 330 325 318 315 313 312 315 316 315 20 322 357 122 117 108 7 46 338 319 336 312 90 356 102 317 296 293 348 271 246 151 146 142 151 138 137 156 169 169 185
346 343 340 336 332 327 322 316 312 309 305 301 301 339 66 238 349 161 152 210 200 186 329 278 320 31 146 336 322 285 352 351 235 207 177 118 83 230 153 156 158 170 177 174 188
345 340 338 333 329 327 318 310 311 308 296 267 224 149 249 260 317 224 148 303 217 262 235 269 261 55 36 318 15 28 49 10 299 97 220 117 254 214 167 159 179 178 180 183 189
343 340 336 331 327 324 315 311 309 305 78 134 121 75 273 317 288 248 171 236 281 181 241 294 67 76 19 69 22 1 315 336 320 333 130 145 251 250 168 170 184 185 187 188 187
341 338 335 330 325 324 318 305 279 348 160 216 261 31 288 246 289 231 196 96 356 339 20 45 51 66 41 73 188 294 338 314 247 297 288 178 311 104 181 187 189 193 192 190 191
339 337 333 327 326 326 340 23 17 346 19 220 199 253 274 292 288 262 155 115 93 47 55 359 57 194 213 182 117 133 222 250 262 280 267 244 225 228 192 205 198 197 195 193 202
338 335 332 327 324 321 309 80 106 215 310 262 236 261 259 56 308 307 132 124 115 181 18 16 243 218 213 219 203 195 256 281 291 335 139 7 327 320 185 228 220 193 193 194 142
336 335 334 327 320 355 338 107 59 138 186 292 217 210 204 144 208 251 137 137 134 146 155 159 226 85 198 245 228 236 191 235 217 341 38 11 348 344 356 309 257 204 168 180 181
335 336 336 326 44 319 286 339 329 184 49 279 275 268 158 155 255 210 172 148 153 188 168 219 259 228 301 255 142 267 216 202 40 53 287 34 271 294 307 315 351 21 159 68 71
334 335 335 335 272 301 313 337 328 64 1 251 231 103 131 158 174 206 182 64 165 184 111 243 211 327 349 207 170 221 116 56 72 84 71 7 78 269 341 338 8 38 80 96 108
331 330 330 158 170 254 322 321 60 47 255 326 14 159 131 246 164 81 129 76 151 165 339 237 274 246 214 10 161 138 77 46 54 73 47 303 119 296 338 296 310 88 114 124 131
327 319 298 287 230 320 315 45 53 144 323 320 332 53 142 203 198 112 147 166 157 106 274 318 230 268 190 130 63 76 58 358 3 16 208 302 66 239 299 313 240 151 166 146 133
325 316 215 219 306 349 50 55 156 229 258 299 322 286 190 160 194 168 129 183 214 101 118 143 318 197 175 184 170 83 140 147 190 188 264 302 298 277 302 293 265 219 133 123 154
323 342 264 271 202 357 76 95 205 213 283 330 322 20 335 263 168 144 175 199 201 166 166 143 272 296 229 157 120 176 117 161 104 7 60 278 292 310 27 0 339 356 101 122 107
337 350 294 14 156 76 81 221 231 231 318 348 297 353 332 289 161 155 179 210 209 186 146 213 48 241 271 103 44 155 151 77 13 147 220 292 284 242 258 216 242 237 182 267 283
23 51 306 5 31 52 161 226 262 255 244 273 274 303 266 256 188 207 200 247 209 145 119 130 102 287 5 85 182 115 95 54 112 106 152 170 269 219 254 292 201 249 230 232 250
56 54 310 34 56 15 161 205 279 281 325 310 245 230 252 300 257 219 208 232 140 147 156 188 150 203 239 271 229 198 132 131 118 220 83 145 271 309 257 208 193 208 231 217 267
76 254 318 77 121 306 294 284 262 274 259 265 270 222 44 295 308 215 211 249 360 154 165 183 91 33 347 1 17 84 83 100 107 92 186 122 267 310 282 250 237 228 239 290 325
71 54 336 53 135 128 350 280 277 240 254 230 259 226 334 304 14 283 311 3 360 144 95 104 123 157 184 204 149 132 155 176 119 105 170 215 278 274 262 246 227 263 357 235 320
30 197 166 293 344 347 306 295 298 324 266 223 273 224 183 260 318 297 322 329 32 352 69 109 178 168 261 216 151 153 175 167 129 159 130 227 209 259 237 235 203 139 172 128 126
83 40 355 311 302 318 178 267 239 261 225 274 218 274 177 189 192 243 336 8 276 334 79 19 180 133 40 66 157 119 146 139 74 113 305 171 263 239 327 323 20 157 192 75 107
327 338 104 320 346 8 255 287 264 350 270 236 261 203 169 208 196 269 182 317 317 233 110 82 123 78 185 335 86 23 90 100 107 114 120 185 268 349 10 62 301 304 356 301 187